Weather History for KUKI - August, 2012

Change the Weather History Date:

Wednesday, August 15, 2012

  Actual Average Record
Temperature  
Mean Temperature 80 °F 73 °F  
Max Temperature 98 °F 92 °F 107 °F (1951)
Min Temperature 62 °F 54 °F 40 °F (1911)
Degree Days  
Heating Degree Days 0 0  
Month to date heating degree days 0 0  
Since 1 June heating degree days 63 33  
Since 1 July heating degree days 0 1  
Cooling Degree Days 15 8  
Month to date cooling degree days 188 128  
Year to date cooling degree days 637 571  
Since 1 June cooling degree days 575 519  
Growing Degree Days 30 (Base 50)    
Moisture  
Dew Point 51 °F    
Average Humidity 45    
Maximum Humidity 72    
Minimum Humidity 17    
Precipitation  
Precipitation 0.00 in 0.00 in 0.29 in (1976)
Month to date precipitation T 0.01  
Year to date precipitation 18.92 23.43  
Since 1 July precipitation T 0.05  
Snow  
Snow 0.00 in - - ()
Month to date snowfall 0.0  
Since 1 June snowfall 0.0  
Since 1 July snowfall 0.0  
Snow Depth 0.00 in    
Sea Level Pressure  
Sea Level Pressure 29.78 in    
Wind  
Wind Speed 6 mph (SSE)    
Max Wind Speed 16 mph    
Max Gust Speed 22 mph    
Visibility 10 miles    
Events      
T = Trace of Precipitation, MM = Missing Value Source: NWS Daily Summary

Daily Weather History Graph

Daily Weather History Graph

Search for Another Location

Airport or City:

Trip Planner

Search our weather history database for the weather conditions in past years. The results will help you decide how hot, cold, wet, or windy it might be!

Date:

Astronomy

Aug. 15, 2012 Rise Set
Actual Time 6:26 AM PDT 8:07 PM PDT
Civil Twilight 5:57 AM PDT 8:35 PM PDT
Nautical Twilight 5:23 AM PDT 9:09 PM PDT
Astronomical Twilight 4:46 AM PDT 9:46 PM PDT
Moon 4:29 AM PDT (8/15) 6:43 PM PDT (8/15)
Length of Visible Light 14h 37m
Length of Day
13h 40m
Waning Crescent, 4% of the Moon is Illuminated
Aug 15
Waning Crescent
Aug 17
New
Aug 24
First Quarter
Aug 31
Full
Sep 8
Last Quarter

Hourly Weather History & Observations

Time (PDT) Temp. Heat Index Dew Point Humidity Pressure Visibility Wind Dir Wind Speed Gust Speed Precip Events Conditions
12:56 AM 70.0 °F - 51.1 °F 51% 29.77 in 10.0 mi Calm Calm - N/A   Clear
1:56 AM 68.0 °F - 52.0 °F 56% 29.77 in 10.0 mi SE 4.6 mph - N/A   Clear
2:56 AM 66.9 °F - 52.0 °F 59% 29.77 in 10.0 mi SSE 3.5 mph - N/A   Clear
3:56 AM 64.9 °F - 52.0 °F 63% 29.77 in 10.0 mi SSE 4.6 mph - N/A   Clear
4:56 AM 64.0 °F - 52.0 °F 65% 29.75 in 10.0 mi Calm Calm - N/A   Clear
5:56 AM 63.0 °F - 52.0 °F 67% 29.77 in 10.0 mi South 4.6 mph - N/A   Clear
6:56 AM 62.1 °F - 53.1 °F 72% 29.78 in 10.0 mi SSE 5.8 mph - N/A   Clear
7:56 AM 63.0 °F - 53.1 °F 70% 29.80 in 10.0 mi SE 5.8 mph - N/A   Clear
8:56 AM 64.0 °F - 53.1 °F 67% 29.82 in 10.0 mi SSE 6.9 mph - N/A   Clear
9:56 AM 66.9 °F - 53.1 °F 61% 29.82 in 10.0 mi ESE 4.6 mph - N/A   Clear
10:56 AM 71.1 °F - 53.1 °F 53% 29.83 in 10.0 mi Calm Calm - N/A   Clear
11:56 AM 79.0 °F - 53.1 °F 40% 29.81 in 10.0 mi East 3.5 mph - N/A   Clear
12:56 PM 86.0 °F - 52.0 °F 31% 29.79 in 10.0 mi ESE 4.6 mph - N/A   Clear
1:56 PM 93.0 °F 90.6 °F 53.1 °F 26% 29.77 in 10.0 mi SE 6.9 mph - N/A   Clear
2:56 PM 96.1 °F - 52.0 °F 22% 29.75 in 10.0 mi SE 12.7 mph - N/A   Clear
3:56 PM 97.0 °F - 48.9 °F 19% 29.73 in 10.0 mi SE 10.4 mph 19.6 mph N/A   Clear
4:56 PM 97.0 °F - 44.1 °F 16% 29.73 in 10.0 mi SSE 8.1 mph - N/A   Clear
5:56 PM 93.0 °F - 46.9 °F 20% 29.73 in 10.0 mi SSE 12.7 mph - N/A   Clear
6:56 PM 88.0 °F - 48.9 °F 26% 29.75 in 10.0 mi SSE 12.7 mph 19.6 mph N/A   Clear
7:56 PM 82.9 °F - 46.9 °F 28% 29.77 in 10.0 mi South 8.1 mph 17.3 mph N/A   Clear
9:56 PM 73.0 °F - 46.9 °F 39% 29.83 in 10.0 mi South 5.8 mph - N/A   Clear
10:56 PM 69.1 °F - 46.9 °F 45% 29.85 in 10.0 mi South 5.8 mph - N/A   Clear
11:56 PM 64.9 °F - 48.0 °F 54% 29.86 in 10.0 mi South 4.6 mph - N/A   Clear